This demonstration page uses our WeatherBlox Daily Observations layout. Learn more.

Left ArrowRight Arrow

Hourly Observations for May 9, 2021

Temp ( °F °C ) Dew Point ( °F °C ) Humidity (%) Winds ( mph kmh ) Pressure ( in mb ) Visibility ( mi km ) Precip ( " mm )
12:51 am 00:51 Clear 63 17.2 21 -6.1 20 20 NNW 6 9 29.76 1008 10 16.0934 N/A
1:51 am 01:51 Clear 63 17.2 21 -6.1 20 20 SSE 5 7 29.76 1008 10 16.0934 N/A
2:51 am 02:51 Clear 58 14.4 20 -6.7 23 23 N N/A 29.77 1008 10 16.0934 N/A
3:51 am 03:51 Clear 56 13.3 19 -7.2 24 24 SE 5 7 29.78 1009 10 16.0934 N/A
4:51 am 04:51 Clear 55 12.8 18 -7.8 23 23 SE 5 7 29.8 1009 10 16.0934 N/A
5:51 am 05:51 Sunny 56 13.3 19 -7.2 24 24 E 3 6 29.82 1010 10 16.0934 N/A
6:51 am 06:51 Sunny 63 17.2 20 -6.7 19 19 ESE 5 7 29.83 1010 10 16.0934 N/A
7:51 am 07:51 Sunny 68 20 24 -4.4 19 19 SE 5 7 29.84 1010 10 16.0934 N/A
8:51 am 08:51 Sunny 74 23.3 27 -2.8 17 17 SE 5 7 29.83 1010 10 16.0934 N/A
9:51 am 09:51 Sunny 79 26.1 29 -1.7 16 16 WNW 6 9 29.82 1010 10 16.0934 N/A
10:51 am 10:51 Sunny 81 27.2 28 -2.2 14 14 undefined N/A 29.8 1009 10 16.0934 N/A
11:51 am 11:51 Sunny 84 28.9 27 -2.8 12 12 undefined N/A 29.78 1008 10 16.0934 N/A
12:51 pm 12:51 Sunny 85 29.4 27 -2.8 12 12 VRB 6 9 29.75 1008 10 16.0934 N/A
2:51 pm 14:51 Sunny 90 32.2 23 -5 9 9 N 7 11 29.68 1005 10 16.0934 N/A
3:51 pm 15:51 Sunny 92 33.3 16 -8.9 6 6 WNW 10 17 29.65 1004 10 16.0934 N/A
4:51 pm 16:51 Sunny 90 32.2 10 -12.2 5 5 NW 21 33 29.65 1004 10 16.0934 N/A
5:51 pm 17:51 Sunny 88 31.1 12 -11.1 6 6 WNW 21 33 29.66 1004 10 16.0934 N/A
6:51 pm 18:51 Sunny 84 28.9 13 -10.6 7 7 WNW 17 28 29.66 1005 10 16.0934 N/A
7:51 pm 19:51 Clear 79 26.1 12 -11.1 8 8 WNW 8 13 29.69 1005 10 16.0934 N/A
8:51 pm 20:51 Clear 75 23.9 13 -10.6 9 9 NW 10 17 29.72 1006 10 16.0934 N/A
9:51 pm 21:51 Clear 73 22.8 14 -10 10 10 NW 12 19 29.72 1007 10 16.0934 N/A
10:51 pm 22:51 Clear 66 18.9 14 -10 13 13 NNW 6 9 29.74 1007 10 16.0934 N/A
11:51 pm 23:51 Clear 71 21.7 15 -9.4 12 12 NW 14 22 29.74 1007 10 16.0934 N/A

Powered by AerisWeather